Regional Weather Roundup
Issued by NWS Grand Forks, ND

Home | Current Version | Previous Version | Text Only | Print | Product List | Glossary On
Versions: 1 2 3 4 5 6 7 8 9 10 11 12 13 14 15 16 17 18 19 20 21 22 23 24 25 26 27 28 29 30 31 32 33 34 35 36 37 38 39 40 41 42 43 44 45 46 47 48 49 50
000
ASUS43 KFGF 061410
RWRFGF
PRAIRIE TO PINES  WEATHER ROUNDUP
NATIONAL WEATHER SERVICE EASTERN NORTH DAKOTA/GRAND FORKS ND
800 AM CST FRI MAR 06 2015

 **SATELLITE DATA USED TO AUGMENT SKY COVER AT AUTOMATED STATIONS**
 *****  WEATHER ACROSS EASTERN NORTH DAKOTA  *****

CITY           SKY/WX    TMP DP  RH WIND       PRES   REMARKS
GRAND FORKS    CLEAR     13   7  77 W8        30.04R WCI   2
GRAND FRKS AFB CLEAR     15   8  73 NW8       30.03S WCI   4
GRAND FRKS NWS   N/A     12 N/A N/A W9          N/A  WCI   0
DEVILS LAKE    PTCLDY    10   3  72 W9        30.04R WCI  -2
FARGO          CLEAR     15   8  73 NW12      30.06R WCI   2
WAHPETON ARPT  SUNNY     14   9  79 W7        30.07R WCI   4
$$

 ***** WEATHER ACROSS CENTRAL AND WESTERN NORTH DAKOTA  *****

CITY           SKY/WX    TMP DP  RH WIND       PRES   REMARKS
BISMARCK       PTCLDY    17  13  84 W5        30.10R WCI  10
MINOT          MOCLDY    17  10  74 SW12      30.05S WCI   4
JAMESTOWN      CLEAR     17  11  77 NW5       30.05R WCI  10
MINOT AFB      MOCLDY    15  13  90 W5        30.04S WCI   8
GARRISON         N/A     14  10  84 CALM      30.07R
WILLISTON      MOCLDY    17  13  84 CALM      30.06F
DICKINSON      CLOUDY    24  17  74 CALM      30.04S
HETTINGER      CLEAR     19  12  74 CALM      30.08S
$$

 *****  OTHER AIRPORT OBSERVATIONS IN OUR AREA  *****

CITY           SKY/WX    TMP DP  RH WIND       PRES   REMARKS
WALHALLA         N/A     16   9  73 W8        30.02S WCI   5
GRAFTON AIRPOR NOT AVBL
VALLEY CITY AR FAIR      16  14  93 NW13      30.05R WCI   2
CANDO          FAIR       9   5  85 W9        30.04S WCI  -5
CAVALIER APRT  FAIR      14   9  79 W13       30.03R WCI   0
GWINNER        SUNNY     19  12  73 NW10      30.08R WCI   8
SHEYENNE NWR     N/A     15   9  78 NW5       29.95S WCI   7
ROLLA          FAIR      14   9  79 W8        30.01S WCI   3
 ***** THE ABOVE OBSERVATIONS ARE NON NWS ARE NOT QUALITY
       CONTROLLED AND MAY MIS-REPORT RAIN FOR SNOW...
$$

  *****  WEATHER ACROSS NORTHERN MINNESOTA  *****

CITY           SKY/WX    TMP DP  RH WIND       PRES   REMARKS
FLAG ISLAND    CLEAR     10   5  79 W10       29.92R WCI  -3
WARROAD        PTCLDY     9   3  78 W8        29.96R WCI  -4
ROSEAU         PTCLDY    12   5  73 W12       29.97R WCI  -2
HALLOCK        NOT AVBL
THF RVR FALLS  PTCLDY    10   9  92 CALM      30.00S
BAUDETTE       SUNNY     11   4  73 W6        29.92R WCI   1
WASKISH        SUNNY     10   7  85 SW8       29.95R WCI  -1
CROOKSTON      PTCLDY    10   7  85 CALM      30.04S
STEPHEN NDAWN    N/A     10   5  79 W7          N/A  WCI   0
GREENBUSH NDAW   N/A      7   3  85 W8          N/A  WCI  -6
$$
  *****  WEATHER ACROSS CENTRAL AND WEST MINNESOTA  *****

CITY           SKY/WX    TMP DP  RH WIND       PRES   REMARKS
FOSSTON        PTCLDY     3   0  85 CALM      30.00S
BEMIDJI        SUNNY     10   6  81 W7        29.96R WCI  -1
PARK RAPIDS    FAIR      10   4  76 NW8       29.96R WCI  -2
ELBOW LAKE     FAIR      12   7  81 NW8       30.03R WCI   0
WADENA         SUNNY     12   7  79 W7        29.99R WCI   2
DETROIT LAKES  MOSUNNY   16  10  79 NW9       30.01R WCI   4
MOORHEAD       CLEAR     16  12  86 NW6       30.06R WCI   7
FERGUS FALLS   SUNNY      9   3  78 NW7       30.07R WCI  -3
MORRIS MN      SUNNY     16   9  73 NW10      30.03R WCI   3
STAPLES        SUNNY     10   3  72 W6        29.99R WCI   1
$$
  *****  WEATHER ELSEWHERE ACROSS MINNESOTA  *****

CITY           SKY/WX    TMP DP  RH WIND       PRES   REMARKS
DULUTH         MOSUNNY   11   2  67 W14       29.93S WCI  -5
INTRNTL FALLS  SUNNY     12   5  73 W10       29.90R WCI  -1
ELY            SUNNY     10   3  72 SW8       29.89S WCI  -1
CLOQUET        MOSUNNY   10   1  67 SW7       29.96S WCI   0
WHEATON        SUNNY     18  10  73 W8        30.08R WCI   7
BRAINERD       SUNNY      8   3  80 SW6       29.99R WCI  -2
HIBBING        SUNNY     12   3  67 SW6       29.92S WCI   3
ALEXANDRIA     SUNNY     14   7  73 W8        30.00R WCI   3
SAINT CLOUD    SUNNY     13   6  74 S6        30.02S WCI   4
MINNEAPOLIS    MOSUNNY   16   6  65 S6        30.07F WCI   7
$$

  *****  WEATHER ACROSS SOUTH DAKOTA  *****

CITY           SKY/WX    TMP DP  RH WIND       PRES   REMARKS
SIOUX FALLS    MOSUNNY   23  14  68 W6        30.09S WCI  16
BROOKINGS      NOT AVBL
WATERTOWN      CLEAR     20  11  68 W10       30.04R WCI   9
HURON          PTCLDY    20  14  77 NE6       30.10R WCI  12
SISSETON       NOT AVBL
ABERDEEN       CLEAR      9   4  80 CALM      30.09R
MITCHELL       CLOUDY    33  20  58 W12       30.09F WCI  24
PIERRE         CLEAR     27  18  69 W12       30.10R WCI  17
MOBRIDGE       CLEAR     22  14  71 NW5       30.07R WCI  16
RAPID CITY     CLEAR     28  18  66 NW6       30.12S WCI  22
$$

  *****  SOME WEATHER IN NEARBY STATES *****

CITY           SKY/WX    TMP DP  RH WIND       PRES   REMARKS
GLASGOW MT     CLOUDY    28  21  75 CALM      30.03F
GREAT FALLS MT MOCLDY    35  18  49 SW15      30.13F
CHEYENNE WY    CLEAR     32  12  43 W8        30.23S WCI  25
SCOTTSBLUFF NE CLEAR     26  20  77 NW6       30.23R WCI  19
OMAHA NE       MOSUNNY   23  17  78 SE6       30.20S WCI  16
DES MOINES IA  PTSUNNY   24  13  62 S12       30.20S WCI  13
DAVENPORT IA   SUNNY     13   2  61 S18       30.31F WCI  -4
CHICAGO IL     PTSUNNY    9   0  67 SW14G21   30.41F WCI  -7
EAU CLAIRE WI  MOSUNNY    9  -1  64 S8        30.11F WCI  -3
LA CROSSE WI   SUNNY     11   1  64 S17       30.20F WCI  -6
$$

  *****  SOME NATIONAL WEATHER *****

CITY           SKY/WX    TMP DP  RH WIND       PRES   REMARKS
LA GUARDIA NY  SUNNY     17   4  56 NE3       30.55R
RALEIGH NC     MOSUNNY   25  12  58 NE10G18   30.52R WCI  15
ATLANTA GA     CLOUDY    30  27  86 N7        30.41R WCI  23
NEW ORLEANS LA MOSUNNY   33  23  66 N18G24    30.49R WCI  22
OKLAHOMA CITY  SUNNY     30  20  66 S8        30.48R WCI  22
ALBUQUERQUE NM PTCLDY    30  16  56 N9        30.38S WCI  22
SALT LAKE CITY PTCLDY    30  22  72 SE7       30.43R WCI  23
LOS ANGELES CA CLEAR     51  25  36 CALM      30.14R
BOISE ID       CLEAR     32  19  58 S5        30.42R
SEATTLE WA     MOCLDY    41  35  79 CALM      30.39S
$$

*** WEATHER ACROSS MANITOBA...SASKATCHEWAN AND ONTARIO ***
                ***ONTARIO***

CITY           SKY/WX    TMP DP  RH WIND       PRES   REMARKS
GERALDTON      LGT SNOW  10   1  67 SW13G20   29.78S VSB 1   WCI  -5
THUNDER BAY    PTSUNNY    3  -4  72 SW3       29.90F
SIOUX LOOKOUT  MOSUNNY    9   3  78 NW7       29.79R WCI  -3
TORONTO        SUNNY      9   0  66 SW12      30.47F WCI  -6
BIG TROUT LK   LGT SNOW   7   3  85 NW12G20   29.64R WCI  -9
PICKLE LAKE    FLURRIES  12   3  67 W13G26    29.69R WCI  -3
DRYDEN         SUNNY      9   5  85 W15G22    29.82R WCI  -8
KENORA         SUNNY     10   3  72 W8        29.88R WCI  -1
$$
                *** MANITOBA***

CITY           SKY/WX    TMP DP  RH WIND       PRES   REMARKS
BRANDON        PTCLDY     5   1  85 W12       30.00S WCI -11
DAUPHIN        NOT AVBL
ISLAND LAKE    PTCLDY     0  -6  78 W10       29.78R WCI -17
PILOT MOUND      N/A      3   1  92 SW9         N/A  WCI -11
THE PAS        LGT SNOW  12   9  85 SE8       29.80F WCI   1
THOMPSON       MOCLDY    -2  -8  78 CALM      29.81S
WINNIPEG       CLEAR      9   1  72 W12       29.98S WCI  -6
LYNN LAKE      LGT SNOW   5   1  85 SW5       29.76S WCI  -4
CHURCHILL      CRYSTALS -18 -24  76 W10       29.80R WCI -39
GILLAM         CLEAR     -9 -15  77 NW8       29.78R WCI -26
$$
                ***SASKATCHEWAN***

CITY           SKY/WX    TMP DP  RH WIND       PRES   REMARKS
ESTEVAN        CLOUDY    16  10  79 SW7       30.02F WCI   6
KINDERSLEY     MOCLDY    30  25  80 W8        29.92R WCI  23
LLOYDMINSTER   LGT RAIN  36  32  87 W14       29.81F
PRINCE ALBERT  MOCLDY    23  18  80 W6        29.79F WCI  16
REGINA         CLOUDY    10   9  92 SE7       29.95F WCI   0
YORKTON        CLOUDY    19  12  73 SW15      29.89F WCI   5
N. BATTLEFORD  FLURRIES  34  28  80 W6        29.85S
LA RONGE       PTCLDY    10   9  92 SW3       29.72S
SASKATOON      CLOUDY    23  19  86 SW10      29.87F WCI  12
SWIFT CURRENT  CLOUDY    30  23  74 SW16      29.91F WCI  19
$$
NOTE: THESE ARE AUTOMATED STATIONS WITH LIMITED QUALITY CONTROL
      "FAIR" INDICATES FEW OR NO CLOUDS BELOW 12,000 FEET WITH NO
      SIGNIFICANT WEATHER AND/OR OBSTRUCTIONS TO VISIBILITY.
      SKY/WX - SKY CONDITION AND SIGNIFICANT WEATHER.
      TMP - AIR TEMPERATURE.    DP   - DEWPOINT TEMPERATURE.
      RH  - RELATIVE HUMIDITY.  PRES - PRESSURE.
      HX  - HEAT INDEX.         WCI  - WIND CHILL INDEX.
$


USA.gov is the U.S. government's official web portal to all federal, state and local government web resources and services.